Flag for Israel Weather past 2 weeks in Petah Tikva, Israel

Now
79 °F

Sunny.


Feels Like: 80 °F
Forecast: 67 / 90 °F
Wind: 10 mph from Northwest

Location: Ben Gurion International Airport


UV Index: 7 (High)

Visibility: 10 mi


Pressure: 30.01 "Hg

Humidity: 54%

Dew point: 61 °F

Location of Petah TikvaLocation

Historic Weather in Petah Tikva

°F

Petah Tikva temperature yesterday

Maximum temperature yesterday: 77 °F (at 11:50 AM)
Minimum temperature yesterday: 59 °F (at 4:20 AM)
Average temperature yesterday: 68 °F

Past Weeks' High & Low Weather Summary

 TemperatureHumidityPressure
High93 °F (Apr 18, 5:20 PM)88% (Apr 13, 3:20 AM)30.09 "Hg (Apr 13, 3:20 AM)
Low52 °F (Apr 11, 6:20 AM)20% (Apr 18, 5:20 PM)29.80 "Hg (Apr 16, 2:50 AM)
Average69 °F59%29.95 "Hg
* Reported Apr 8 10:20 AM — Apr 23 10:50 AM, Petah Tikva, Weather by CustomWeather, © 2014

Note: Actual official high and low records may vary slightly from our data, if they occured in-between our weather recording intervals... More about our weather records

Advertising

Historic Weather Conditions — Data for Previous 24 hours

 ConditionsComfort  
Time TempWeatherWind HumidityBarometerVisibility
10:50 AM
Apr 23
79 °FSunny.7 mph45%30.04 "Hg10 mi
10:20 AM77 °FSunny.6 mph47%30.04 "Hg10 mi
9:50 AM75 °FSunny.7 mph50%30.04 "Hg10 mi
9:20 AM73 °FSunny.3 mph61%30.04 "Hg10 mi
8:50 AM70 °FSunny.3 mph64%30.04 "Hg10 mi
8:20 AM70 °FSunny.1 mph57%30.07 "Hg10 mi
7:50 AM68 °FSunny.1 mph56%30.07 "Hg10 mi
7:20 AM64 °FSunny.No wind60%30.04 "Hg10 mi
6:50 AM61 °FClear.1 mph68%30.04 "Hg10 mi
6:20 AM57 °FClear.1 mph77%30.04 "Hg10 mi
5:50 AM57 °FClear.1 mph77%30.04 "Hg10 mi
5:20 AM59 °FClear.3 mph77%30.04 "Hg10 mi
4:50 AM59 °FClear.5 mph77%30.04 "Hg10 mi
4:20 AM59 °FClear.2 mph82%30.04 "Hg10 mi
3:50 AM59 °FClear.2 mph82%30.04 "Hg10 mi
3:20 AM59 °FClear.1 mph88%30.04 "Hg10 mi
2:50 AM61 °FClear.2 mph88%30.04 "Hg10 mi
2:20 AM61 °FClear.2 mph83%30.04 "Hg10 mi
1:50 AM63 °FClear.1 mph83%30.07 "Hg10 mi
1:20 AM63 °FClear.5 mph83%30.07 "Hg10 mi
12:50 AM64 °FClear.3 mph83%30.07 "Hg10 mi
12:20 AM64 °FClear.5 mph83%30.07 "Hg10 mi
11:50 PM
Apr 22
64 °FClear.5 mph83%30.07 "Hg10 mi
11:20 PM64 °FClear.3 mph83%30.07 "Hg10 mi
10:50 PM66 °FClear.6 mph83%30.07 "Hg10 mi
10:20 PM66 °FClear.5 mph78%30.07 "Hg10 mi
9:50 PM66 °FClear.7 mph78%30.07 "Hg10 mi
9:20 PM66 °FClear.6 mph78%30.07 "Hg10 mi
8:50 PM66 °FClear.5 mph73%30.04 "Hg10 mi
8:20 PM68 °FClear.6 mph69%30.04 "Hg10 mi
7:50 PM68 °FSunny.6 mph69%30.04 "Hg10 mi
7:20 PM68 °FSunny.8 mph69%30.04 "Hg10 mi
6:50 PM70 °FSunny.10 mph64%30.04 "Hg10 mi
6:20 PM70 °FSunny.10 mph69%30.01 "Hg10 mi
5:50 PM72 °FSunny.10 mph61%30.01 "Hg10 mi
5:20 PM73 °FSunny.9 mph53%30.01 "Hg10 mi
4:50 PM75 °FPassing clouds.10 mph54%30.01 "HgN/A
4:20 PM75 °FSunny.7 mph50%30.01 "Hg10 mi
3:50 PM75 °FPassing clouds.8 mph50%30.01 "HgN/A
3:20 PM73 °FPassing clouds.9 mph53%30.01 "HgN/A
2:50 PM73 °FPassing clouds.12 mph57%30.04 "HgN/A
2:20 PM73 °FSunny.14 mph57%30.04 "Hg10 mi
1:50 PM73 °FSunny.13 mph57%30.04 "Hg10 mi
1:20 PM73 °FSunny.12 mph57%30.04 "Hg10 mi
12:50 PM73 °FPassing clouds.15 mph61%30.04 "HgN/A
12:20 PM73 °FPassing clouds.15 mph61%30.04 "HgN/A
11:50 AM77 °FSunny.3 mph51%30.04 "Hg10 mi
11:20 AM75 °FSunny.2 mph50%30.07 "Hg10 mi
Weather by CustomWeather, © 2014

See weather overview